Stations météo

Publicité
Lyon/Bron, France (7480): Température de l'air & dewpoint: 15.10.2019 07:00:00 - 21.10.2019 07:00:00 (CEST)Lyon/Bron, France (7480): Température de l'air 5cm: 15.10.2019 07:00:00 - 21.10.2019 07:00:00 (CEST)Lyon/Bron, France (7480): Température de l'air -20cm: 15.10.2019 07:00:00 - 21.10.2019 07:00:00 (CEST)Lyon/Bron, France (7480): Vitesse du vent & gusts: 15.10.2019 07:00:00 - 21.10.2019 07:00:00 (CEST)Lyon/Bron, France (7480): Direction du vent: 15.10.2019 07:00:00 - 21.10.2019 07:00:00 (CEST)Lyon/Bron, France (7480): reduced air pressure: 15.10.2019 07:00:00 - 21.10.2019 07:00:00 (CEST)Lyon/Bron, France (7480): visibility: 15.10.2019 07:00:00 - 21.10.2019 07:00:00 (CEST)Lyon/Bron, France (7480): Ensoleillement: 15.10.2019 07:00:00 - 21.10.2019 07:00:00 (CEST)Lyon/Bron, France (7480): Quantités de précipitations: 15.10.2019 07:00:00 - 21.10.2019 07:00:00 (CEST)
Date & Time tt [°C] td [°C] tt 5cm [°C] tt -20cm [°C] ff [km/h] ff [knt] fx [km/h] fx [knt] dd ppp [hPa] vv [km] sd [min] rr [mm]
21.10.2019 07:00:00 13,4 12,1 12,3 16,2 4 2 5 3 SE 1015,8 59 0 0,0
21.10.2019 06:00:00 13,5 11,5 12,6 16,3 4 2 14 7 SSW 1015,3 60 0 0,0
21.10.2019 05:00:00 13,8 11,5 13,2 16,3 8 5 16 9 SW 1014,9 60 0 0,0
21.10.2019 04:00:00 13,8 12,0 13,4 16,3 10 5 16 9 SSW 1014,2 60 0 0,0
21.10.2019 03:00:00 14,5 13,9 13,9 16,3 6 3 13 7 SSW 1013,8 16 0 0,0
21.10.2019 02:00:00 14,6 14,0 14,2 16,3 8 4 14 8 W 1012,8 16 0 0,0
21.10.2019 01:00:00 14,5 13,7 14,0 16,4 5 3 15 8 ESE 1011,5 60 0 0,0
21.10.2019 00:00:00 14,4 13,8 13,7 16,5 5 3 18 10 W 1011,3 56 0 0,0
20.10.2019 23:00:00 14,2 13,6 13,6 16,6 8 4 17 9 E 1010,5 60 0 5,3
20.10.2019 22:00:00 14,2 13,6 13,6 16,7 11 6 22 12 SSE 1009,8 3,1 0 11,6
20.10.2019 21:00:00 14,4 13,6 13,5 16,7 6 4 24 13 SSE 1008,9 1,7 0 7,9
20.10.2019 20:00:00 14,2 13,1 13,3 16,7 15 8 89 48 SSW 1009,5 4,0 0 6,9
20.10.2019 19:00:00 22,6 11,6 20,1 16,7 22 12 43 23 S 1003,3 60 0 0,0
20.10.2019 18:00:00 21,5 13,7 20,5 16,6 16 9 55 30 S 1003,7 50 0 0,0
20.10.2019 17:00:00 21,8 13,4 19,6 16,6 26 14 52 28 S 1003,2 28 0 0,0
20.10.2019 16:00:00 23,5 11,9 21,9 16,5 17 9 36 19 S 1002,8 56 0 0,0
20.10.2019 15:00:00 22,5 12,1 21,4 16,5 19 10 32 18 SSW 1003,7 19 0 0,0
20.10.2019 14:00:00 21,8 12,6 21,2 16,4 8 4 31 17 SSW 1004,3 20 0 0,0
20.10.2019 13:00:00 22,5 11,9 20,6 16,4 22 12 53 29 S 1004,9 54 0 0,0
20.10.2019 12:00:00 19,7 13,2 18,9 16,4 13 7 21 11 S 1005,1 48 0 0,0
20.10.2019 11:00:00 18,5 14,2 17,7 16,4 7 4 15 8 NNW 1005,2 39 0 0,0
20.10.2019 10:00:00 17,8 13,5 16,3 16,4 5 3 16 9 ESE 1005,2 39 0 0,0
20.10.2019 09:00:00 17,1 13,0 15,6 16,5 5 3 14 8 WSW 1005,2 41 0 0,0
20.10.2019 08:00:00 17,8 12,5 16,1 16,5 10 5 25 13 S 1004,6 45 0 0,0
20.10.2019 07:00:00 17,9 11,0 16,6 16,6 10 5 23 13 SSE 1005,1 60 0 0,0
20.10.2019 06:00:00 18,2 11,3 17,1 16,6 15 8 36 20 SE 1005,2 60 0 0,0
20.10.2019 05:00:00 18,9 11,7 17,7 16,6 19 11 48 26 S 1005,0 60 0 0,0
20.10.2019 04:00:00 19,5 12,3 17,6 16,7 27 15 51 28 S 1005,0 60 0 0,0
20.10.2019 03:00:00 19,2 12,7 16,8 16,7 17 9 36 19 S 1005,4 60 0 0,0
20.10.2019 02:00:00 18,8 12,8 16,9 16,8 19 10 40 22 SSW 1005,5 60 0 0,0
20.10.2019 01:00:00 19,3 12,8 17,7 16,8 21 12 35 19 SSW 1005,4 60 0 0,0
20.10.2019 00:00:00 19,5 13,2 17,9 16,8 13 7 33 18 S 1005,7 60 0 0,0
19.10.2019 23:00:00 19,5 13,9 18,4 16,8 16 9 34 18 SSW 1005,9 60 0 0,0
19.10.2019 22:00:00 19,4 14,0 18,3 16,8 18 10 45 24 S 1006,1 60 0 0,0
19.10.2019 21:00:00 19,3 14,3 18,1 16,8 21 11 43 23 SSW 1005,9 57 0 0,0
19.10.2019 20:00:00 18,9 14,8 17,7 16,8 19 10 42 23 SSW 1006,2 48 0 0,0
19.10.2019 19:00:00 18,7 15,2 16,5 16,7 28 15 62 34 S 1005,9 28 0 0,0
19.10.2019 18:00:00 19,6 14,8 18,3 16,6 32 17 56 30 S 1006,1 53 0 0,0
19.10.2019 17:00:00 19,0 15,5 17,7 16,6 24 13 43 23 S 1006,0 48 0 0,0
19.10.2019 16:00:00 18,2 16,4 16,9 16,5 16 9 30 16 SSW 1005,9 35 0 2,4
19.10.2019 15:00:00 19,1 16,3 17,5 16,4 11 6 23 13 SSE 1006,2 13 0 0,2
19.10.2019 14:00:00 19,1 16,7 18,1 16,3 11 6 24 13 SW 1006,6 34 0 0,4
19.10.2019 13:00:00 17,8 16,3 16,3 16,3 5 3 10 5 NNE 1007,6 20 0 0,6
19.10.2019 12:00:00 17,0 15,5 16,1 16,2 7 4 29 16 ENE 1008,4 18 0 0,8
19.10.2019 11:00:00 16,5 15,0 16,5 16,2 8 4 12 7 NE 1008,5 24 0 0,0
19.10.2019 10:00:00 16,7 15,1 16,3 16,3 7 4 16 8 NNW 1009,4 22 0 0,0
19.10.2019 09:00:00 16,6 14,8 15,6 16,3 8 4 21 11 SSW 1009,4 42 0 0,0
19.10.2019 08:00:00 16,6 14,4 15,2 16,3 13 7 23 12 S 1009,1 49 0 0,0
19.10.2019 07:00:00 16,7 14,2 15,2 16,3 11 6 32 17 WSW 1009,3 57 0 0,0
19.10.2019 06:00:00 16,8 14,3 15,1 16,3 19 11 35 19 SSE 1009,1 23 0 0,4
19.10.2019 05:00:00 17,4 13,7 16,4 16,3 22 12 35 19 S 1009,3 48 0 0,0
19.10.2019 04:00:00 17,5 14,0 15,6 16,3 20 11 35 19 S 1009,7 35 0 0,0
19.10.2019 03:00:00 15,8 14,2 14,8 16,4 9 5 15 8 S 1010,5 31 0 0,0
19.10.2019 02:00:00 15,2 14,6 13,8 16,4 6 4 14 7 SE 1010,6 13 0 0,0
19.10.2019 01:00:00 15,1 14,5 13,7 16,4 4 2 9 5 E 1010,7 5 0 0,0
19.10.2019 00:00:00 15,6 15,0 14,5 16,4 3 2 8 5 E 1011,3 4,6 0 0,2
18.10.2019 23:00:00 15,9 15,3 15,1 16,4 3 2 9 5 SE 1012,0 3,6 0 1,0
18.10.2019 22:00:00 15,8 15,2 14,7 16,4 3 2 6 3 NNW 1012,4 4,2 0 0,0
18.10.2019 21:00:00 15,8 15,0 14,2 16,4 2 1 8 5 ESE 1012,8 6 0 0,0
18.10.2019 20:00:00 16,2 15,2 15,1 16,4 3 1 5 3 NE 1012,9 9 0 0,0
18.10.2019 19:00:00 16,5 15,2 15,4 16,3 4 2 7 4 N 1012,9 17 0 0,0
18.10.2019 18:00:00 16,9 15,2 15,7 16,3 7 4 12 7 W 1013,1 20 0 0,8
18.10.2019 17:00:00 17,4 14,7 16,5 16,2 10 5 21 11 S 1013,2 16 0 0,0
18.10.2019 16:00:00 17,1 15,1 16,2 16,1 9 5 19 10 S 1013,5 49 0 0,6
18.10.2019 15:00:00 17,2 14,7 15,6 16,1 15 8 47 26 SW 1013,9 9 0 1,0
18.10.2019 14:00:00 19,1 12,4 19,3 16,0 27 14 48 26 S 1013,6 60 0 0,0
18.10.2019 13:00:00 19,0 12,0 19,2 16,0 26 14 49 26 S 1013,9 57 0 0,0
18.10.2019 12:00:00 19,2 12,5 18,7 16,0 29 16 52 28 S 1014,2 56 0 0,0
18.10.2019 11:00:00 18,1 12,8 17,7 15,9 29 15 56 31 S 1014,1 53 0 0,0
18.10.2019 10:00:00 17,6 13,1 16,6 16,0 31 17 55 30 S 1013,5 58 0 0,0
18.10.2019 09:00:00 17,0 13,1 15,8 16,0 32 18 58 31 S 1013,5 60 0 0,0
18.10.2019 08:00:00 16,4 12,6 15,4 16,0 26 14 45 24 S 1013,5 60 0 0,0
18.10.2019 07:00:00 16,0 12,9 14,7 16,0 22 12 44 24 S 1013,3 60 0 0,0
18.10.2019 06:00:00 16,6 13,1 15,0 16,1 25 13 46 25 S 1013,5 60 0 0,0
18.10.2019 05:00:00 15,6 12,7 13,6 16,1 11 6 17 9 S 1014,0 60 0 0,0
18.10.2019 04:00:00 15,5 12,4 13,7 16,2 10 5 22 12 SE 1014,2 60 0 0,0
18.10.2019 03:00:00 16,5 12,8 15,4 16,2 13 7 38 21 SE 1014,6 60 0 0,0
18.10.2019 02:00:00 17,3 13,0 16,3 16,2 23 12 37 20 S 1014,7 60 0 0,0
18.10.2019 01:00:00 17,8 13,1 16,8 16,2 21 12 41 22 S 1015,0 60 0 0,0
18.10.2019 00:00:00 17,8 12,7 16,9 16,2 23 13 41 22 S 1015,2 60 0 0,0
17.10.2019 23:00:00 17,9 13,0 16,5 16,2 23 13 43 23 S 1015,8 60 0 0,0
17.10.2019 22:00:00 17,4 12,9 16,1 16,2 19 11 37 20 SSW 1015,7 60 0 0,0
17.10.2019 21:00:00 17,9 12,8 15,0 16,2 21 11 45 24 S 1015,2 60 0 0,0
17.10.2019 20:00:00 16,7 13,2 14,6 16,2 16 9 30 16 S 1015,1 47 0 0,4
17.10.2019 19:00:00 17,0 13,1 14,7 16,2 6 3 10 6 S 1015,1 7 0 0,2
17.10.2019 18:00:00 17,7 12,6 15,3 16,1 4 2 21 12 S 1015,0 60 0 0,2
17.10.2019 17:00:00 17,8 13,3 15,4 16,1 12 7 24 13 S 1015,0 32 0 0,2
17.10.2019 16:00:00 19,0 11,3 18,6 16,0 18 10 46 25 SSW 1014,9 60 0 0,0
17.10.2019 15:00:00 19,6 11,1 19,5 15,9 24 13 60 32 SSW 1014,5 53 0 0,0
17.10.2019 14:00:00 19,5 11,8 19,8 15,8 29 16 63 34 S 1014,5 54 0 0,0
17.10.2019 13:00:00 19,2 12,0 19,0 15,7 40 22 62 33 S 1014,5 58 0 0,0
17.10.2019 12:00:00 19,0 12,0 18,9 15,7 35 19 63 34 S 1014,7 36 0 0,0
17.10.2019 11:00:00 18,1 11,4 18,4 15,7 27 15 50 27 S 1015,0 53 28 0,0
17.10.2019 10:00:00 17,4 10,7 16,3 15,7 22 12 43 23 SSE 1015,2 43 5 0,0
17.10.2019 09:00:00 15,9 10,2 13,9 15,9 18 10 34 19 S 1015,5 57 15 0,0
17.10.2019 08:00:00 14,3 9,3 13,0 15,9 13 7 23 12 SE 1015,2 60 0 0,0
17.10.2019 07:00:00 14,3 9,5 13,5 16,0 12 7 23 12 ESE 1015,0 60 0 0,0
17.10.2019 06:00:00 14,4 10,0 13,5 16,0 10 5 23 12 SE 1015,6 59 0 0,0
17.10.2019 05:00:00 15,1 10,5 13,9 16,1 12 7 36 19 SSE 1016,0 60 0 0,0
17.10.2019 04:00:00 16,4 10,5 14,8 16,1 23 12 44 24 S 1015,9 60 0 0,0
17.10.2019 03:00:00 16,2 9,4 14,9 16,2 25 13 45 24 S 1016,1 60 0 0,0
17.10.2019 02:00:00 16,5 8,9 14,9 16,2 21 12 40 22 S 1015,9 60 0 0,0
17.10.2019 01:00:00 15,5 8,9 14,4 16,3 13 7 33 18 SSE 1015,7 60 0 0,0
17.10.2019 00:00:00 15,2 9,1 14,5 16,3 19 11 31 17 S 1015,7 60 0 0,0
16.10.2019 23:00:00 15,3 9,0 14,6 16,4 19 10 35 19 S 1015,6 60 0 0,0
16.10.2019 22:00:00 15,6 9,3 14,7 16,4 22 12 41 22 S 1014,9 60 0 0,0
16.10.2019 21:00:00 15,7 9,1 14,7 16,5 23 12 36 20 S 1014,8 60 0 0,0
16.10.2019 20:00:00 16,0 8,7 14,7 16,4 20 11 33 18 S 1014,8 60 0 0,0
16.10.2019 19:00:00 17,0 8,4 15,7 16,3 16 8 27 15 S 1014,2 60 1 0,0
16.10.2019 18:00:00 18,4 7,8 18,3 16,2 18 10 30 16 S 1013,9 55 33 0,0
16.10.2019 17:00:00 19,5 8,5 19,7 16,0 19 10 39 21 S 1014,3 50 55 0,0
16.10.2019 16:00:00 19,1 7,2 21,3 15,7 21 11 38 20 S 1014,8 46 60 0,0
16.10.2019 15:00:00 19,4 8,1 21,5 15,5 20 11 35 19 S 1015,3 60 60 0,0
16.10.2019 14:00:00 18,1 8,4 21,1 15,3 18 10 29 16 S 1016,1 60 60 0,0
16.10.2019 13:00:00 16,5 8,2 20,0 15,3 14 8 29 16 SSE 1017,0 60 60 0,0
16.10.2019 12:00:00 14,7 8,9 17,5 15,2 11 6 23 13 S 1017,8 52 60 0,0
16.10.2019 11:00:00 12,6 8,5 14,4 15,3 11 6 17 9 SSE 1018,6 40 60 0,0
16.10.2019 10:00:00 10,3 7,7 10,0 15,5 7 4 12 6 S 1019,1 49 60 0,0
16.10.2019 09:00:00 8,4 7,6 5,9 15,6 6 3 10 6 S 1018,8 30 29 0,0
16.10.2019 08:00:00 7,6 7,2 4,7 15,8 8 5 13 7 SSE 1018,6 20 0 0,0
16.10.2019 07:00:00 7,2 6,9 4,2 15,9 7 4 11 6 ESE 1018,6 20 0 0,0
16.10.2019 06:00:00 7,3 6,9 4,7 16,1 4 2 9 5 SSE 1018,6 34 0 0,0
16.10.2019 05:00:00 7,8 7,2 5,3 16,2 8 5 12 6 ESE 1018,6 55 0 0,0
16.10.2019 04:00:00 7,8 7,4 5,1 16,4 4 2 10 5 SSW 1018,9 45 0 0,0
16.10.2019 03:00:00 8,2 7,6 5,6 16,5 6 3 8 4 SE 1018,9 37 0 0,0
16.10.2019 02:00:00 8,7 8,1 6,1 16,7 2 1 8 5 SSW 1019,1 31 0 0,0
16.10.2019 01:00:00 9,5 8,7 6,8 16,8 6 3 7 4 E 1018,7 43 0 0,0
16.10.2019 00:00:00 9,7 8,6 7,2 16,9 5 3 9 5 ESE 1018,6 56 0 0,0
15.10.2019 23:00:00 10,6 9,4 8,4 17,0 2 1 6 3 S 1018,4 57 0 0,0
15.10.2019 22:00:00 10,8 9,9 8,1 17,1 5 3 9 5 SSE 1017,9 54 0 0,0
15.10.2019 21:00:00 10,5 8,4 8,4 17,2 5 3 11 6 SE 1017,5 60 0 0,0
15.10.2019 20:00:00 11,5 8,7 9,0 17,2 4 2 7 4 S 1016,8 60 0 0,0
15.10.2019 19:00:00 13,6 8,4 12,8 17,2 6 3 16 8 W 1015,6 60 3 0,0
15.10.2019 18:00:00 13,6 8,4 13,7 17,2 14 7 20 11 W 1014,6 60 0 0,0
15.10.2019 17:00:00 13,6 10,4 13,6 17,1 7 4 13 7 NW 1013,8 60 0 0,2
15.10.2019 16:00:00 12,7 10,6 10,9 17,1 6 4 56 30 N 1013,0 59 0 1,2
15.10.2019 15:00:00 15,2 12,7 14,1 17,1 10 5 16 9 SE 1011,1 12 0 0,2
15.10.2019 14:00:00 14,8 12,8 13,4 17,2 5 3 13 7 SSE 1011,3 59 0 0,2
15.10.2019 13:00:00 13,7 12,3 13,3 17,2 5 3 8 4 SE 1011,6 9 0 1,2
15.10.2019 12:00:00 13,6 12,7 13,0 17,3 6 3 17 9 SW 1011,7 7 0 1,0
15.10.2019 11:00:00 13,1 12,3 12,7 17,5 6 3 17 9 W 1010,8 3,0 0 5,2
15.10.2019 10:00:00 13,6 13,0 13,1 17,6 5 3 22 12 ENE 1010,3 10 0 2,9
15.10.2019 09:00:00 13,6 13,0 13,1 17,9 8 4 16 9 ENE 1010,4 3,4 0 9,7
15.10.2019 08:00:00 13,8 13,0 13,3 18,0 13 7 22 12 NE 1008,5 4,5 0 10,3
15.10.2019 07:00:00 14,9 13,6 14,0 18,1 6 3 29 16 N 1009,7 1,3 0 8,9

tt = Température de l'air
td = dewpoint
tt 5cm = Température de l'air 5cm
tt -20cm = Température de l'air -20cm
ff = Vitesse du vent
fx = gusts
dd = Direction du vent
ppp = reduced air pressure
vv = visibility
sd = Ensoleillement
rr = Quantités de précipitations

stations d'obs. à proximité